sat.trackr.live / text

‹ back to catalog

INTELSAT 19 (IS-19)

NORAD 38356 · 2012-030A

PAYLOAD ACTIVE UNKNOWN

§ Identity

Operator
Country
ITSO
Launch date
2012-06-01
Launch site
SEAL
Launch vehicle
Mass (kg)
RCS (m²)
15.82

Purposes: comms

External: N2YO · Heavens-Above · Gunter

§ Orbital elements

Epoch: 2026-05-24T18:15:57.616128Z

Period
1,436.03 min
Inclination
0.0172°
Eccentricity
0.0003180
Mean motion
1.00276615 rev/d
Perigee alt
35,771.8 km
Apogee alt
35,798.6 km
Semi-major
42,163.4 km
B*
0.0000e+0
RAAN
305.1048°
Arg perigee
124.2869°
Mean anomaly
252.9603°
Rev number
5,021

§ Raw data

INTELSAT 19 (IS-19)1 38356U 12030A   26144.76108352 -.00000059  00000+0  00000+0 0  99932 38356   0.0172 305.1048 0003180 124.2869 252.9603  1.00276615 50215

JSON: /api/v1/satellites/38356 · /tle

For live sub-satellite position, see the globe view (requires WebGL).

§ Visibility from observer

Set your observer location to see the next 7 days of passes ≥ 10°. The values pass through the URL so the page stays shareable.

No JS? Fill the form by hand. The geolocation button needs JavaScript.